This is the latest recevied weather packets stored in our database for station/object VK3HAG. If no packets are shown the sender has not sent any weather packets the latest 10 day(s).
| Time | Temp. | Humidity | Pressure | Rain* | Wind** | Luminosity | Snow |
|---|---|---|---|---|---|---|---|
| 1777564805 | 10.56° C | 86% | 1022.5 hPa | 0 mm | - | - | - |
| 1777563905 | 11.11° C | 86% | 1022.6 hPa | 0 mm | - | - | - |
| 1777563005 | 10.56° C | 86% | 1022.5 hPa | 0 mm | - | - | - |
| 1777562105 | 11.11° C | 86% | 1022.4 hPa | 0 mm | - | - | - |
| 1777561204 | 11.11° C | 85% | 1022.5 hPa | 0 mm | - | - | - |
| 1777560304 | 11.67° C | 85% | 1022.6 hPa | 0 mm | - | - | - |
| 1777559405 | 11.67° C | 86% | 1022.7 hPa | 0 mm | - | - | - |
| 1777558505 | 11.67° C | 86% | 1022.7 hPa | 0 mm | - | - | - |
| 1777557613 | 11.67° C | 85% | 1022.8 hPa | 0 mm | - | - | - |
| 1777556704 | 11.67° C | 86% | 1022.9 hPa | 0 mm | - | - | - |
| 1777555805 | 11.67° C | 86% | 1023 hPa | 0 mm | - | - | - |
| 1777554904 | 11.67° C | 85% | 1023.1 hPa | 0 mm | - | - | - |
| 1777554005 | 11.67° C | 85% | 1023.3 hPa | 0 mm | - | - | - |
| 1777553105 | 11.67° C | 85% | 1023.3 hPa | 0 mm | - | - | - |
| 1777552205 | 12.22° C | 84% | 1023.1 hPa | 0 mm | - | - | - |
| 1777551305 | 12.22° C | 84% | 1023.2 hPa | 0 mm | - | - | - |
| 1777550404 | 12.22° C | 84% | 1023.3 hPa | 0 mm | - | - | - |
| 1777549505 | 12.78° C | 83% | 1023.3 hPa | 0 mm | - | - | - |
| 1777548604 | 12.78° C | 83% | 1023.4 hPa | 0 mm | - | - | - |
| 1777547705 | 12.78° C | 83% | 1023.3 hPa | 0 mm | - | - | - |
| 1777546804 | 12.78° C | 82% | 1023.2 hPa | 0 mm | - | - | - |
| 1777545904 | 12.78° C | 82% | 1023.2 hPa | 0 mm | - | - | - |
| 1777545004 | 13.33° C | 78% | 1023.1 hPa | 0 mm | - | - | - |
| 1777544104 | 13.33° C | 78% | 1023.2 hPa | 0 mm | - | - | - |
| 1777543204 | 13.89° C | 76% | 1023.2 hPa | 0 mm | - | - | - |
* Rain latest hour (hover to see other rain measurements)
** Current wind speed in m/s (hover to see current wind gust speed)